Miscellaneous Local Product
Issued by NWS Hastings, NE

Home | Current Version | Previous Version | Text Only | Print | Product List | Glossary Off
Versions: 1 2 3 4 5 6 7 8 9 10 11 12 13 14 15 16 17 18 19 20 21 22 23 24 25 26 27 28 29 30 31 32 33 34 35 36 37 38 39 40 41 42 43 44 45 46 47 48 49 50

080
AXUS43 KGID 062202
MISGRI

GID CWA HOURLY WEATHER ROUNDUP
NATIONAL WEATHER SERVICE HASTINGS NE
400 PM CST TUE DEC 06 2016

NOTE: "FAIR" INDICATES FEW OR NO CLOUDS BELOW 12,000 FEET WITH NO
SIGNIFICANT WEATHER AND/OR OBSTRUCTIONS TO VISIBILITY.

...SOUTH CENTRAL NEBRASKA...

CITY           SKY/WX    TMP DP  RH WIND       PRES   REMARKS
GRAND ISLAND   CLEAR     33   7  33 NW13      30.02S WCI  24
HASTINGS       NOT AVBL
KEARNEY        CLEAR     36   5  27 NW10      30.00F WCI  28
ORD            CLEAR     31   1  28 NW15      30.00R WCI  20
YORK           CLEAR     32   9  37 NW18G24   30.02R WCI  20
AURORA         CLEAR     33   7  32 NW16      30.02R WCI  23
LEXINGTON      SUNNY     35   6  29 W13       29.99F WCI  26
HOLDREGE       SUNNY     35   4  27 NW9       30.00F WCI  27
HEBRON         CLEAR     36   8  32 NW10      30.05R WCI  28

...NEBRASKA PANHANDLE...

CITY           SKY/WX    TMP DP  RH WIND       PRES   REMARKS
CHADRON        NOT AVBL
ALLIANCE       SUNNY     22   3  44 N13       29.92R WCI  10
SCOTTSBLUFF    CLOUDY    25   0  33 NW5       29.92S WCI  19
SIDNEY         NOT AVBL

...WESTERN AND NORTH CENTRAL NEBRASKA...

CITY           SKY/WX    TMP DP  RH WIND       PRES   REMARKS
VALENTINE      CLEAR     22   4  46 NW15G28   29.99R WCI   9
AINSWORTH      CLEAR     25   4  41 NW23G30   29.98R WCI   9
ONEILL         CLEAR     27   5  40 NW23G35   29.98R WCI  12
BROKEN BOW     CLEAR     32   6  33 NW12      29.98S WCI  23
NORTH PLATTE   NOT AVBL
MCCOOK         NOT AVBL

...EASTERN NEBRASKA...

CITY           SKY/WX    TMP DP  RH WIND       PRES   REMARKS
NORFOLK        NOT AVBL
SO SIOUX CITY  CLEAR     30  11  45 NW21G28   29.96R WCI  17
COLUMBUS       CLEAR     34   9  35 W14       30.01R WCI  24
ALBION         CLEAR     31   2  28 NW14G25   29.99R WCI  21
OMAHA EPPLEY   CLEAR     33  10  38 NW17      30.00R WCI  22
MILLARD        CLEAR     33  11  39 NW18G25   30.01S WCI  22
LINCOLN        NOT AVBL
NEBRASKA CITY  CLEAR     34   6  29 NW18      30.03R WCI  23
BEATRICE       CLEAR     36  11  35 NW14      30.04S WCI  27
FALLS CITY     NOT AVBL

...NORTHERN KANSAS...

CITY           SKY/WX    TMP DP  RH WIND       PRES   REMARKS
GOODLAND       NOT AVBL
HILL CITY      SUNNY     37   4  25 W6        30.04S WCI  32
NORTON         CLEAR     36  -6  17 W10       30.02S WCI  28
PHILLIPSBURG   SUNNY     37   7  28 W6        30.05S WCI  33
SMITH CENTER   SUNNY     36   9  32 W7        30.05S WCI  30
BELOIT         SUNNY     37   7  28 NW9       30.05S WCI  31
RUSSELL        SUNNY     36   8  31 NW9       30.04S WCI  29
CONCORDIA      NOT AVBL
TOPEKA         CLEAR     39  12  33 NW8       30.07R WCI  33



USA.gov is the U.S. government's official web portal to all federal, state and local government web resources and services.